The Dalles, WA

2:35 PM PST on December 06, 2019 (GMT -0800)
Columbia Gorge Regional-The Dalles

Weather History for KDLS - October, 2019

Change the Weather History Date:

Thursday, October 10, 2019

  Actual Average Record
Temperature  
Mean Temperature 42 °F -  
Max Temperature 57 °F 69 °F 84 °F (1988)
Min Temperature 28 °F 44 °F 28 °F (2019)
Degree Days  
Heating Degree Days 22    
Moisture  
Dew Point 23 °F    
Average Humidity 51    
Maximum Humidity 78    
Minimum Humidity 24    
Precipitation  
Precipitation 0.00 in - - ()
Sea Level Pressure  
Sea Level Pressure 30.46 in    
Wind  
Wind Speed 6 mph (East)    
Max Wind Speed 18 mph    
Max Gust Speed 24 mph    
Visibility 10 miles    
Events      
Averages and records for this station are not official NWS values.
T = Trace of Precipitation, MM = Missing Value Source: NWS Daily Summary

Daily Weather History Graph

Daily Weather History Graph

Search for Another Location

Airport or City:

Astronomy

Oct. 10, 2019 Rise Set
Actual Time 7:14 AM PDT 6:28 PM PDT
Civil Twilight 6:44 AM PDT 6:57 PM PDT
Nautical Twilight 6:10 AM PDT 7:32 PM PDT
Astronomical Twilight 5:35 AM PDT 8:06 PM PDT
Moon 5:44 PM PDT (10/10) 3:49 AM PDT (10/10)
Length of Visible Light 12h 13m
Length of Day
11h 13m
Waxing Gibbous, 91% of the Moon is Illuminated
Oct 10
Waxing Gibbous
Oct 13
Full
Oct 21
Last Quarter
Oct 27
New
Nov 4
First Quarter

Hourly Weather History & Observations

Time (PDT) Temp. Windchill Dew Point Humidity Pressure Visibility Wind Dir Wind Speed Gust Speed Precip Events Conditions
12:53 AM 34.0 °F 29.8 °F 24.1 °F 67% 30.48 in 10.0 mi East 4.6 mph - N/A   Clear
1:53 AM 34.0 °F 29.8 °F 24.1 °F 67% 30.48 in 10.0 mi ESE 4.6 mph - N/A   Clear
2:53 AM 33.1 °F 30.0 °F 24.1 °F 70% 30.49 in 10.0 mi South 3.5 mph - N/A   Clear
3:53 AM 30.9 °F 27.5 °F 23.0 °F 72% 30.50 in 10.0 mi ESE 3.5 mph - N/A   Clear
4:53 AM 30.9 °F 26.2 °F 23.0 °F 72% 30.51 in 10.0 mi ESE 4.6 mph - N/A   Clear
5:53 AM 28.0 °F 24.2 °F 21.0 °F 75% 30.51 in 10.0 mi East 3.5 mph - N/A   Clear
6:53 AM 28.0 °F - 21.0 °F 75% 30.53 in 10.0 mi Calm Calm - N/A   Clear
7:53 AM 28.9 °F 25.2 °F 23.0 °F 78% 30.54 in 10.0 mi East 3.5 mph - N/A   Clear
8:53 AM 34.0 °F 31.0 °F 24.1 °F 67% 30.55 in 10.0 mi ESE 3.5 mph - N/A   Clear
9:53 AM 39.9 °F 37.8 °F 26.1 °F 58% 30.55 in 10.0 mi ESE 3.5 mph - N/A   Clear
10:53 AM 45.0 °F 43.5 °F 28.0 °F 52% 30.53 in 10.0 mi Variable 3.5 mph - N/A   Clear
11:53 AM 50.0 °F - 28.0 °F 43% 30.49 in 10.0 mi Calm Calm - N/A   Clear
12:53 PM 55.9 °F - 21.9 °F 27% 30.46 in 10.0 mi ENE 16.1 mph - N/A   Clear
1:53 PM 57.0 °F - 21.9 °F 26% 30.44 in 10.0 mi ENE 15.0 mph - N/A   Clear
2:53 PM 57.9 °F - 21.9 °F 25% 30.42 in 10.0 mi ENE 16.1 mph 24.2 mph N/A   Clear
3:53 PM 57.0 °F - 21.0 °F 25% 30.40 in 10.0 mi ENE 18.4 mph - N/A   Clear
4:53 PM 55.9 °F - 19.0 °F 24% 30.39 in 10.0 mi ENE 16.1 mph - N/A   Clear
5:53 PM 54.0 °F - 19.9 °F 26% 30.39 in 10.0 mi East 12.7 mph - N/A   Clear
6:53 PM 50.0 °F - 19.0 °F 29% 30.39 in 10.0 mi East 5.8 mph - N/A   Clear
7:53 PM 48.0 °F - 19.0 °F 32% 30.40 in 10.0 mi ESE 3.5 mph - N/A   Clear
8:53 PM 44.1 °F - 23.0 °F 43% 30.40 in 10.0 mi Calm Calm - N/A   Clear
9:53 PM 41.0 °F 38.0 °F 23.0 °F 49% 30.40 in 10.0 mi WSW 4.6 mph - N/A   Clear
10:53 PM 41.0 °F - 26.1 °F 55% 30.40 in 10.0 mi Calm Calm - N/A   Clear
11:53 PM 37.0 °F 34.5 °F 23.0 °F 57% 30.40 in 10.0 mi ESE 3.5 mph - N/A   Clear